Hourly Data Report for October 04, 2019

All times are specified in Local Standard Time (LST). Add 1 hour to adjust for Daylight Saving Time where and when it is observed.

CORAL HARBOUR A
NUNAVUT
Current Station Operator: NAVCAN

64°11'36.000" N
83°21'34.000" W
62.20 m
2301002
71915
YZS

Download Data

Hourly Data (October 2019)
Hourly Data Report for October 4, 2019
TIME Temp Definition
°C
Dew Point Definition
°C
Rel Hum Definition
%
Wind Dir Definition
10's deg

Wind Spd Definition
km/h
Visibility Definition
km
Stn Press Definition
kPa
Hmdx Definition


Wind Chill Definition


Weather Definition


00:00 -3.0 -4.5 89 34 8 24.1 100.82   -6 LegendNANA
01:00 -3.4 -4.6 92 26 7 24.1 100.83   -6 Mainly Clear
02:00 -3.5 -4.8 91 30 11 24.1 100.84   -8 LegendNANA
03:00 -4.0 -5.1 92 30 11 24.1 100.83   -8 LegendNANA
04:00 -4.3 -5.3 93 31 10 24.1 100.85   -8 Mainly Clear
05:00 -4.2 -5.3 92 23 4 24.1 100.87   -6 LegendNANA
06:00 -4.1 -5.2 92 29 11 24.1 100.85   -9 LegendNANA
07:00 -2.7 -3.5 94 24 11 24.1 100.85   -7 Mostly Cloudy
08:00 -1.9 -3.6 89 25 17 24.1 100.77   -7 LegendNANA
09:00 -1.7 -3.3 89 23 16 24.1 100.75   -7 LegendNANA
10:00 -1.3 -2.7 90 22 13 24.1 100.64   -6 Cloudy
11:00 -0.1 -1.3 92 23 24 24.1 100.57   -6 LegendNANA
12:00 0.2 -1.0 91 22 27 24.1 100.50     LegendNANA
13:00 0.0 -0.4 97 22 27 1.2 100.43   -6 Snow
14:00 0.3 0.0 98 22 27 4.8 100.35     Snow
15:00 0.4 0.1 98 22 23 9.7 100.29     Snow
16:00 0.9 0.6 98 23 24 24.1 100.24     Ice Pellets
17:00 1.2 0.9 98 22 22 24.1 100.17     Rain
18:00 1.4 1.2 99 23 18 3.2 100.12     Rain,Fog
19:00 1.5 1.3 99 25 17 9.7 100.12     Rain,Fog
20:00 1.5 1.3 99 25 17 9.7 100.07     Rain,Fog
21:00 1.2 1.1 99 21 5 1.6 100.05     Rain,Fog
22:00 1.0 0.9 99 22 11 1.6 100.00     Rain,Fog
23:00 1.1 1.0 99 32 4 1.6 99.97     Rain,Fog

Notes on Data Quality.

Legend

  • E = Estimated
  • M = Missing
  • NA = Not Available
Date modified: